Regional Weather Roundup
Issued by NWS

Home | Current Version | Previous Version | Text Only | Print | Product List | Glossary On
Versions: 1 2 3 4 5 6 7 8 9 10 11 12 13 14 15 16 17 18 19 20 21 22 23 24 25 26 27 28 29 30 31 32 33 34 35 36 37 38 39 40 41 42 43 44 45 46 47 48 49 50
000
ASUS45 KBOU 230807
RWRCO

WEATHER ROUNDUP FOR COLORADO
NATIONAL WEATHER SERVICE DENVER/BOULDER CO
200 AM MDT SAT AUG 23 2014

NOTE: "FAIR" INDICATES FEW OR NO CLOUDS BELOW 12000 FEET WITH NO
SIGNIFICANT WEATHER AND/OR OBSTRUCTIONS TO VISIBILITY.

COZ001>005-013-030-031-230900-
...NORTHWEST COLORADO...

CITY           SKY/WX    TMP DP  RH WIND       PRES   REMARKS
CRAIG          CLOUDY    53  47  79 W3        30.10R
HAYDEN         CLOUDY    52  48  87 W3        30.09S
MEEKER         CLOUDY    59  49  69 N7        30.06F
MOUNT WERNER   NOT AVBL
STEAMBOAT SPGS CLOUDY    53  52  97 CALM      30.09S
WALDEN         MOCLDY    50  43  76 E7        30.14F
$$

COZ006>008-011-230900-
...WEST CENTRAL VALLEYS...

CITY           SKY/WX    TMP DP  RH WIND       PRES   REMARKS
GRAND JUNCTION CLOUDY    63  52  67 SE15      29.99F
MONTROSE       CLOUDY    58  51  78 S8        30.10F
EAGLE          CLOUDY    55  48  76 CALM      30.13S
RIFLE          MOCLDY    58  51  78 CALM      30.04F
DELTA          RAIN      62  52  69 E8        30.06F
NUCLA          LGT RAIN  55  50  82 CALM      30.15S
$$

COZ017>023-064>068-230900-
...SOUTHWEST COLORADO...

CITY           SKY/WX    TMP DP  RH WIND       PRES   REMARKS
DURANGO        CLOUDY    53  50  89 CALM      30.21S
CORTEZ         CLOUDY    56  53  90 E3        30.15S
PAGOSA SPRINGS   N/A     51  49  92 CALM      30.27S
TELLURIDE      CLOUDY    52  45  76 CALM      30.30S
WOLF CREEK PAS NOT AVBL
$$

COZ009-010-012-014-032>034-037-058>063-230900-
...CENTRAL COLORADO...

CITY           SKY/WX    TMP DP  RH WIND       PRES   REMARKS
ASPEN          CLOUDY    50  46  86 N3        30.18S
BUENA VISTA    CLOUDY    49  45  85 CALM      30.22S
COPPER MTN     MOCLDY    45  39  81 S10       30.41F
BERTHOUD PASS  CLOUDY    36  34  93 W8        30.44F
COTTONWOOD PAS DRIZZLE   50  41  71 W3        30.31S
GUNNISON       MOCLDY    50  45  81 CALM      30.25R
KREMMLING      PTCLDY    52  46  82 CALM      30.16S
LEADVILLE      MOCLDY    43  41  93 CALM      30.29S
SALIDA         MOCLDY    57  46  64 S12G20    30.27S
SUNLIGHT       MOCLDY    45  41  87 CALM      30.33F
WILKERSON PASS NOT AVBL
$$

COZ069>075-230900-
...SAN LUIS VALLEY/SANGRE DE CRISTO MOUNTAINS...

CITY           SKY/WX    TMP DP  RH WIND       PRES   REMARKS
ALAMOSA        CLOUDY    50  49  96 S3        30.23F
LA VETA PASS   NOT AVBL
SAGUACHE       CLOUDY    52  50  93 E5        30.26S
$$

COZ035-036-038>040-230900-
...NORTHERN COLORADO FRONT RANGE...

CITY           SKY/WX    TMP DP  RH WIND       PRES   REMARKS
DENVER INTL AP MOCLDY    61  58  90 SE5       30.03F
DMNS CITY PARK   N/A     61  56  86 E2        30.03S
AURORA         CLOUDY    59  59  99 SE5       30.05F
FRONT RANGE AP CLOUDY    63  59  88 CALM      30.05S
ERIE MUNI ARPT MOCLDY    59  57  92 E6        30.00F
BOULDER MUN AP MOCLDY    61  59  94 CALM      30.00F
CENTENNIAL     PTCLDY    57  54  89 S3        30.05F
BROOMFIELD     MOCLDY    61  55  82 CALM      30.04F
FORT COLLINS   MOCLDY    61  57  88 SE6       30.01F
LONGMONT       DRIZZLE   62  58  88 CALM      30.02F
$$

COZ041-046-047-076>085-087-088-230900-
...PIKES PEAK/PALMER DIVIDE AND SOUTHERN FOOTHILLS...

CITY           SKY/WX    TMP DP  RH WIND       PRES   REMARKS
COLO. SPRINGS  PTCLDY    55  51  86 N6        30.08F
A. F. ACADEMY  PTCLDY    53  52  97 N5        30.09F
ELLICOTT       FOG       52  52 100 CALM      30.07S VSB 1/2
FALCON         CLEAR     52  51  96 CALM      30.12F
FORT CARSON    PTCLDY    54  54 100 CALM      30.06F
LIMON          FOG       54  53  97 CALM      30.03S VSB 3/4
MONUMENT HILL  PTCLDY    52  50  93 SW5       30.11S FOG
TRINIDAD       PTCLDY    57  53  86 W12       30.07F
$$

COZ042>045-048>051-090-091-230900-
...NORTHEAST COLORADO...

CITY           SKY/WX    TMP DP  RH WIND       PRES   REMARKS
GREELEY ARPT   CLOUDY    63  54  72 CALM      30.01F
AKRON          CLOUDY    61  59  93 CALM      30.01R
BURLINGTON     MOCLDY    63  62  97 SW8       29.99R
WRAY             N/A    N/A N/A N/A SW5       29.95F
STERLING       CLOUDY    64  63  94 CALM      29.97S
HOLYOKE        NOT AVBL
FORT MORGAN    CLOUDY    61  59  92 CALM      30.00S
$$

COZ086-089-092>099-230900-
...SOUTHEAST COLORADO...

CITY           SKY/WX    TMP DP  RH WIND       PRES   REMARKS
PUEBLO         CLEAR     58  54  86 N5        30.01S
LA JUNTA       PTCLDY    65  62  90 S7        29.97F
LAMAR          CLOUDY    68  61  78 S6        29.95F
SPRINGFIELD      N/A     66  60  81 S14       29.99F
$$



USA.gov is the U.S. government's official web portal to all federal, state and local government web resources and services.